Time,TemperatureF,DewpointF,PressureIn,WindDirection,WindDirectionDegrees,WindSpeedMPH,WindSpeedGustMPH,Humidity,HourlyPrecipIn,Conditions,Clouds,dailyrainin,SoftwareType,DateUTC
2013-06-23 00:01:00,79.0,74.0,29.99,NNW,342,0.0,0.0,86,0.00,,,0.00,,2013-06-23 05:01:00,
2013-06-23 00:11:00,78.0,73.0,29.99,NNW,342,0.0,0.0,86,0.00,,,0.00,,2013-06-23 05:11:00,
2013-06-23 00:22:00,77.0,72.0,30.01,NNW,342,0.0,0.0,84,0.00,,,0.00,,2013-06-23 05:22:00,
2013-06-23 00:32:00,77.0,72.0,30.01,NNW,342,0.0,0.0,84,0.00,,,0.00,,2013-06-23 05:32:00,
2013-06-23 00:41:00,76.0,71.0,30.00,NNW,342,0.0,0.0,84,0.00,,,0.00,,2013-06-23 05:41:00,
2013-06-23 00:51:00,76.0,71.0,30.00,NNW,342,0.0,0.0,84,0.00,,,0.00,,2013-06-23 05:51:00,
2013-06-23 01:02:00,76.0,71.0,30.00,NNW,342,0.0,0.0,85,0.00,,,0.00,,2013-06-23 06:02:00,
2013-06-23 01:12:00,76.0,71.0,30.00,NNW,342,0.0,0.0,84,0.00,,,0.00,,2013-06-23 06:12:00,
2013-06-23 01:22:00,76.0,71.0,30.00,NNW,342,0.0,0.0,84,0.00,,,0.00,,2013-06-23 06:22:00,
2013-06-23 01:33:00,76.0,71.0,30.00,NNW,342,0.0,0.0,84,0.00,,,0.00,,2013-06-23 06:33:00,
2013-06-23 01:43:00,76.0,71.0,30.00,NNW,342,0.0,0.0,84,0.00,,,0.00,,2013-06-23 06:43:00,
2013-06-23 01:52:00,76.0,71.0,30.00,NNW,342,0.0,0.0,84,0.00,,,0.00,,2013-06-23 06:52:00,
2013-06-23 02:02:00,76.0,71.0,29.99,NNW,342,0.0,0.0,84,0.00,,,0.00,,2013-06-23 07:02:00,
2013-06-23 02:12:00,75.0,70.0,29.99,NNW,342,0.0,0.0,84,0.00,,,0.00,,2013-06-23 07:12:00,
2013-06-23 02:22:00,75.0,70.0,29.99,NNW,342,0.0,0.0,84,0.00,,,0.00,,2013-06-23 07:22:00,
2013-06-23 02:34:00,75.0,70.0,29.99,NNW,342,0.0,0.0,84,0.00,,,0.00,,2013-06-23 07:34:00,
2013-06-23 02:43:00,75.0,70.0,29.99,NNW,342,0.0,0.0,84,0.00,,,0.00,,2013-06-23 07:43:00,
2013-06-23 02:53:00,75.0,70.0,29.98,NNW,342,0.0,0.0,84,0.00,,,0.00,,2013-06-23 07:53:00,
2013-06-23 03:02:00,75.0,70.0,29.99,NNW,342,0.0,0.0,84,0.00,,,0.00,,2013-06-23 08:02:00,
2013-06-23 03:12:00,75.0,70.0,29.98,NNW,342,0.0,0.0,84,0.00,,,0.00,,2013-06-23 08:12:00,
2013-06-23 03:22:00,74.0,69.0,29.98,NNW,342,0.0,0.0,84,0.00,,,0.00,,2013-06-23 08:22:00,
2013-06-23 03:34:00,74.0,69.0,29.98,NNW,342,0.0,0.0,84,0.00,,,0.00,,2013-06-23 08:34:00,
2013-06-23 03:43:00,74.0,69.0,29.98,NNW,342,0.0,0.0,84,0.00,,,0.00,,2013-06-23 08:43:00,
2013-06-23 03:53:00,74.0,69.0,29.98,NNW,342,0.0,0.0,84,0.00,,,0.00,,2013-06-23 08:53:00,
2013-06-23 04:02:00,74.0,69.0,29.98,NNW,342,0.0,0.0,84,0.00,,,0.00,,2013-06-23 09:02:00,
2013-06-23 04:12:00,74.0,69.0,29.98,NNW,342,0.0,0.0,84,0.00,,,0.00,,2013-06-23 09:12:00,
2013-06-23 04:22:00,74.0,69.0,29.98,NNW,342,0.0,0.0,84,0.00,,,0.00,,2013-06-23 09:22:00,
2013-06-23 04:34:00,73.0,68.0,29.98,NNW,342,0.0,0.0,84,0.00,,,0.00,,2013-06-23 09:34:00,
2013-06-23 04:43:00,73.0,68.0,29.98,NNW,342,0.0,0.0,84,0.00,,,0.00,,2013-06-23 09:43:00,
2013-06-23 04:53:00,73.0,68.0,29.98,NNW,342,0.0,0.0,84,0.00,,,0.00,,2013-06-23 09:53:00,
2013-06-23 05:02:00,73.0,68.0,29.98,NNW,342,0.0,0.0,84,0.00,,,0.00,,2013-06-23 10:02:00,
2013-06-23 05:11:00,73.0,68.0,29.98,NNW,342,0.0,0.0,84,0.00,,,0.00,,2013-06-23 10:11:00,
2013-06-23 05:22:00,73.0,68.0,29.98,NNW,342,0.0,0.0,84,0.00,,,0.00,,2013-06-23 10:22:00,
2013-06-23 05:34:00,73.0,68.0,29.98,NNW,342,0.0,0.0,84,0.00,,,0.00,,2013-06-23 10:34:00,
2013-06-23 05:43:00,73.0,68.0,29.98,NNW,342,0.0,0.0,84,0.00,,,0.00,,2013-06-23 10:43:00,
2013-06-23 05:53:00,73.0,68.0,29.98,NNW,342,0.0,0.0,84,0.00,,,0.00,,2013-06-23 10:53:00,
2013-06-23 06:01:00,73.0,68.0,29.98,NNW,342,0.0,0.0,84,0.00,,,0.00,,2013-06-23 11:01:00,
2013-06-23 06:11:00,73.0,68.0,29.99,NNW,342,0.0,0.0,84,0.00,,,0.00,,2013-06-23 11:11:00,
2013-06-23 06:22:00,73.0,68.0,29.99,NNW,342,0.0,0.0,84,0.00,,,0.00,,2013-06-23 11:22:00,
2013-06-23 06:33:00,73.0,68.0,30.00,NNW,342,0.0,0.0,84,0.00,,,0.00,,2013-06-23 11:33:00,
2013-06-23 06:43:00,73.0,68.0,30.00,West,263,0.0,0.0,84,0.00,,,0.00,,2013-06-23 11:43:00,
2013-06-23 06:53:00,73.0,68.0,30.00,West,263,0.0,0.0,84,0.00,,,0.00,,2013-06-23 11:53:00,
2013-06-23 07:01:00,74.0,69.0,30.01,West,263,0.0,0.0,85,0.00,,,0.00,,2013-06-23 12:01:00,
2013-06-23 07:12:00,74.0,69.0,30.00,West,263,0.0,0.0,85,0.00,,,0.00,,2013-06-23 12:12:00,
2013-06-23 07:22:00,75.0,70.0,30.00,West,263,0.0,0.0,85,0.00,,,0.00,,2013-06-23 12:22:00,
2013-06-23 07:33:00,76.0,72.0,30.00,West,263,0.0,0.0,86,0.00,,,0.00,,2013-06-23 12:33:00,
2013-06-23 07:42:00,77.0,73.0,30.00,West,263,0.0,0.0,87,0.00,,,0.00,,2013-06-23 12:42:00,
2013-06-23 07:53:00,78.0,74.0,30.01,West,263,0.0,0.0,88,0.00,,,0.00,,2013-06-23 12:53:00,
2013-06-23 08:02:00,79.0,75.0,30.01,West,263,0.0,0.0,87,0.00,,,0.00,,2013-06-23 13:02:00,
2013-06-23 08:11:00,80.0,75.0,30.01,West,263,0.0,0.0,84,0.00,,,0.00,,2013-06-23 13:11:00,
2013-06-23 08:23:00,81.0,76.0,30.01,SW,224,0.0,4.0,84,0.00,,,0.00,,2013-06-23 13:23:00,
2013-06-23 08:34:00,82.0,77.0,30.01,SSW,198,2.0,5.0,85,0.00,,,0.00,,2013-06-23 13:34:00,
2013-06-23 08:43:00,83.0,78.0,30.02,SSW,193,1.0,5.0,86,0.00,,,0.00,,2013-06-23 13:43:00,
2013-06-23 08:53:00,84.0,79.0,30.02,South,188,0.0,5.0,86,0.00,,,0.00,,2013-06-23 13:53:00,
2013-06-23 09:04:00,84.0,79.0,30.02,SSE,163,1.0,5.0,86,0.00,,,0.00,,2013-06-23 14:04:00,
2013-06-23 09:11:00,85.0,80.0,30.02,SSE,149,2.0,5.0,86,0.00,,,0.00,,2013-06-23 14:11:00,
2013-06-23 09:22:00,85.0,80.0,30.03,ESE,118,4.0,9.0,85,0.00,,,0.00,,2013-06-23 14:22:00,
2013-06-23 09:34:00,85.0,80.0,30.03,SE,125,4.0,9.0,86,0.00,,,0.00,,2013-06-23 14:34:00,
2013-06-23 09:44:00,85.0,80.0,30.03,SE,126,4.0,10.0,85,0.00,,,0.00,,2013-06-23 14:44:00,
2013-06-23 09:52:00,86.0,81.0,30.03,ESE,121,3.0,8.0,85,0.00,,,0.00,,2013-06-23 14:52:00,
2013-06-23 10:05:00,87.0,82.0,30.03,ESE,115,3.0,7.0,84,0.00,,,0.00,,2013-06-23 15:05:00,
2013-06-23 10:11:00,86.0,80.0,30.03,ESE,117,2.0,5.0,83,0.00,,,0.00,,2013-06-23 15:11:00,
2013-06-23 10:23:00,87.0,82.0,30.03,ESE,121,1.0,5.0,85,0.00,,,0.00,,2013-06-23 15:23:00,
2013-06-23 10:35:00,87.0,81.0,30.03,ESE,121,1.0,4.0,82,0.00,,,0.00,,2013-06-23 15:35:00,
2013-06-23 10:43:00,87.0,81.0,30.03,ESE,121,0.0,4.0,83,0.00,,,0.00,,2013-06-23 15:43:00,
2013-06-23 10:52:00,87.0,82.0,30.03,ESE,117,1.0,5.0,84,0.00,,,0.00,,2013-06-23 15:52:00,
2013-06-23 11:06:00,88.0,81.0,30.03,ESE,123,0.0,7.0,79,0.00,,,0.00,,2013-06-23 16:06:00,
2013-06-23 11:12:00,88.0,81.0,30.03,ESE,121,0.0,7.0,81,0.00,,,0.00,,2013-06-23 16:12:00,
2013-06-23 11:22:00,89.0,82.0,30.03,ESE,117,1.0,3.0,80,0.00,,,0.00,,2013-06-23 16:22:00,
2013-06-23 11:36:00,90.0,81.0,30.03,ESE,105,3.0,7.0,74,0.00,,,0.00,,2013-06-23 16:36:00,
2013-06-23 11:43:00,90.0,81.0,30.03,East,96,2.0,8.0,75,0.00,,,0.00,,2013-06-23 16:43:00,
2013-06-23 11:53:00,90.0,82.0,30.03,ESE,109,1.0,7.0,77,0.00,,,0.00,,2013-06-23 16:53:00,
2013-06-23 12:04:00,91.0,82.0,30.03,ESE,103,2.0,7.0,74,0.00,,,0.00,,2013-06-23 17:04:00,
2013-06-23 12:12:00,90.0,78.0,30.03,SE,127,2.0,7.0,68,0.00,,,0.00,,2013-06-23 17:12:00,
2013-06-23 12:22:00,89.0,77.0,30.03,WSW,245,5.0,10.0,69,0.00,,,0.00,,2013-06-23 17:22:00,
2013-06-23 12:33:00,87.0,76.0,30.03,WSW,246,6.0,12.0,70,0.00,,,0.00,,2013-06-23 17:33:00,
2013-06-23 12:43:00,86.0,77.0,30.02,WSW,247,0.0,6.0,75,0.00,,,0.00,,2013-06-23 17:43:00,
2013-06-23 12:53:00,87.0,76.0,30.02,SW,219,2.0,7.0,71,0.00,,,0.00,,2013-06-23 17:53:00,
2013-06-23 13:01:00,87.0,78.0,30.02,WSW,241,3.0,8.0,75,0.00,,,0.00,,2013-06-23 18:01:00,
2013-06-23 13:12:00,89.0,76.0,30.02,WSW,238,1.0,8.0,66,0.00,,,0.00,,2013-06-23 18:12:00,
2013-06-23 13:22:00,90.0,78.0,30.01,SSW,210,2.0,11.0,68,0.00,,,0.00,,2013-06-23 18:22:00,
2013-06-23 13:34:00,89.0,77.0,30.01,South,172,5.0,12.0,67,0.00,,,0.00,,2013-06-23 18:34:00,
2013-06-23 13:42:00,89.0,76.0,30.01,South,169,2.0,9.0,65,0.00,,,0.00,,2013-06-23 18:42:00,
2013-06-23 13:53:00,85.0,77.0,30.02,SSE,157,5.0,11.0,77,0.00,,,0.00,,2013-06-23 18:53:00,
2013-06-23 14:01:00,84.0,76.0,30.01,SSE,157,5.0,13.0,78,0.00,,,0.00,,2013-06-23 19:01:00,
2013-06-23 14:11:00,86.0,78.0,30.00,SSE,162,2.0,9.0,77,0.00,,,0.00,,2013-06-23 19:11:00,
2013-06-23 14:21:00,88.0,76.0,30.00,SSE,154,5.0,9.0,68,0.00,,,0.00,,2013-06-23 19:21:00,
2013-06-23 14:43:00,89.0,78.0,29.99,South,182,5.0,10.0,70,0.00,,,0.00,,2013-06-23 19:43:00,
2013-06-23 15:02:00,91.0,80.0,29.98,South,181,4.0,9.0,70,0.00,,,0.00,,2013-06-23 20:02:00,
2013-06-23 15:12:00,91.0,80.0,29.98,SSW,195,4.0,6.0,70,0.00,,,0.00,,2013-06-23 20:12:00,
2013-06-23 15:24:00,91.0,78.0,29.97,South,189,3.0,7.0,67,0.00,,,0.00,,2013-06-23 20:24:00,
2013-06-23 15:33:00,91.0,79.0,29.98,South,173,4.0,9.0,68,0.00,,,0.00,,2013-06-23 20:33:00,
2013-06-23 15:42:00,90.0,80.0,29.98,South,178,1.0,8.0,72,0.00,,,0.00,,2013-06-23 20:42:00,
2013-06-23 16:34:00,88.0,80.0,29.98,South,178,0.0,0.0,78,0.00,,,0.00,,2013-06-23 21:34:00,
2013-06-23 16:44:00,88.0,81.0,29.98,South,178,0.0,1.0,79,0.00,,,0.00,,2013-06-23 21:44:00,
2013-06-23 17:01:00,89.0,81.0,29.97,South,178,0.0,2.0,77,0.00,,,0.00,,2013-06-23 22:01:00,
2013-06-23 17:22:00,89.0,81.0,29.96,South,178,2.0,5.0,77,0.00,,,0.00,,2013-06-23 22:22:00,
2013-06-23 17:32:00,90.0,79.0,29.96,SSE,157,1.0,5.0,70,0.00,,,0.00,,2013-06-23 22:32:00,
2013-06-23 17:43:00,90.0,79.0,29.96,SSE,165,3.0,6.0,71,0.00,,,0.00,,2013-06-23 22:43:00,
2013-06-23 17:53:00,90.0,79.0,29.96,SSE,158,3.0,6.0,71,0.00,,,0.00,,2013-06-23 22:53:00,
2013-06-23 18:01:00,90.0,80.0,29.96,SE,138,1.0,8.0,72,0.00,,,0.00,,2013-06-23 23:01:00,
2013-06-23 18:11:00,90.0,80.0,29.96,SE,144,2.0,6.0,72,0.00,,,0.00,,2013-06-23 23:11:00,
2013-06-23 18:22:00,90.0,80.0,29.96,SE,144,1.0,5.0,73,0.00,,,0.00,,2013-06-23 23:22:00,
2013-06-23 18:33:00,90.0,79.0,29.96,SE,137,2.0,6.0,70,0.00,,,0.00,,2013-06-23 23:33:00,
2013-06-23 18:44:00,90.0,81.0,29.96,SE,146,2.0,5.0,74,0.00,,,0.00,,2013-06-23 23:44:00,
2013-06-23 18:52:00,90.0,80.0,29.96,SSE,155,1.0,7.0,72,0.00,,,0.00,,2013-06-23 23:52:00,
2013-06-23 19:01:00,89.0,80.0,29.96,SSE,157,1.0,5.0,74,0.00,,,0.00,,2013-06-24 00:01:00,
2013-06-23 19:11:00,89.0,80.0,29.97,SSE,157,0.0,3.0,75,0.00,,,0.00,,2013-06-24 00:11:00,
2013-06-23 19:22:00,88.0,80.0,29.97,SSE,157,0.0,0.0,78,0.00,,,0.00,,2013-06-24 00:22:00,
2013-06-23 19:33:00,88.0,79.0,29.97,SSE,157,0.0,3.0,76,0.00,,,0.00,,2013-06-24 00:33:00,
2013-06-23 19:42:00,88.0,79.0,29.98,SSE,157,1.0,3.0,75,0.00,,,0.00,,2013-06-24 00:42:00,
2013-06-23 19:52:00,87.0,79.0,29.97,SSE,157,0.0,1.0,77,0.00,,,0.00,,2013-06-24 00:52:00,
2013-06-23 20:01:00,87.0,80.0,29.97,ESE,123,0.0,0.0,79,0.00,,,0.00,,2013-06-24 01:01:00,
2013-06-23 20:11:00,86.0,79.0,29.97,ESE,123,0.0,1.0,79,0.00,,,0.00,,2013-06-24 01:11:00,
2013-06-23 20:22:00,86.0,79.0,29.97,ESE,123,0.0,1.0,80,0.00,,,0.00,,2013-06-24 01:22:00,
2013-06-23 20:32:00,85.0,79.0,29.98,ESE,123,0.0,0.0,83,0.00,,,0.00,,2013-06-24 01:32:00,
2013-06-23 20:42:00,84.0,79.0,29.98,ESE,123,0.0,0.0,84,0.00,,,0.00,,2013-06-24 01:42:00,
2013-06-23 20:53:00,83.0,78.0,29.98,ESE,123,0.0,0.0,85,0.00,,,0.00,,2013-06-24 01:53:00,
2013-06-23 21:02:00,83.0,78.0,29.98,ESE,123,0.0,0.0,85,0.00,,,0.00,,2013-06-24 02:02:00,
2013-06-23 21:11:00,82.0,77.0,29.97,ESE,123,0.0,0.0,86,0.00,,,0.00,,2013-06-24 02:11:00,
2013-06-23 21:22:00,81.0,77.0,29.98,ESE,123,0.0,0.0,87,0.00,,,0.00,,2013-06-24 02:22:00,
2013-06-23 21:33:00,81.0,77.0,29.98,ESE,123,0.0,0.0,87,0.00,,,0.00,,2013-06-24 02:33:00,
2013-06-23 21:42:00,80.0,76.0,29.99,ESE,123,0.0,0.0,87,0.00,,,0.00,,2013-06-24 02:42:00,
2013-06-23 21:53:00,80.0,76.0,29.99,ESE,123,0.0,0.0,87,0.00,,,0.00,,2013-06-24 02:53:00,
2013-06-23 22:11:00,79.0,75.0,30.00,ESE,123,0.0,0.0,87,0.00,,,0.00,,2013-06-24 03:11:00,
2013-06-23 22:22:00,79.0,75.0,30.00,ESE,123,0.0,0.0,87,0.00,,,0.00,,2013-06-24 03:22:00,
2013-06-23 22:33:00,78.0,74.0,30.00,ESE,123,0.0,0.0,87,0.00,,,0.00,,2013-06-24 03:33:00,
2013-06-23 22:43:00,78.0,74.0,30.00,ESE,123,0.0,0.0,87,0.00,,,0.00,,2013-06-24 03:43:00,
2013-06-23 22:53:00,78.0,73.0,30.00,ESE,123,0.0,0.0,86,0.00,,,0.00,,2013-06-24 03:53:00,
2013-06-23 23:02:00,77.0,72.0,30.00,ESE,123,0.0,0.0,86,0.00,,,0.00,,2013-06-24 04:02:00,
2013-06-23 23:12:00,77.0,72.0,30.00,ESE,123,0.0,0.0,86,0.00,,,0.00,,2013-06-24 04:12:00,
2013-06-23 23:22:00,77.0,72.0,30.00,ESE,123,0.0,0.0,86,0.00,,,0.00,,2013-06-24 04:22:00,
2013-06-23 23:33:00,77.0,72.0,30.01,ESE,123,0.0,0.0,86,0.00,,,0.00,,2013-06-24 04:33:00,
2013-06-23 23:43:00,77.0,72.0,30.01,ESE,123,0.0,0.0,86,0.00,,,0.00,,2013-06-24 04:43:00,
2013-06-23 23:52:00,77.0,72.0,30.02,ESE,123,0.0,0.0,85,0.00,,,0.00,,2013-06-24 04:52:00,